When you browse on this site, cookies collect data to enhance your experience and personalize the content and advertising you see.
Visit our Privacy Policy to learn more. By continuing to use the site, you agree to this use of cookies and data.
  • In Austria
  • List of Countries
  • For 7 days
  • Water Temperature
  • Satellite Maps
  • Weather Map
  • News
  • Weather Widgets
  • user-avatar
    Login

    Hourly Weather Riobamba

    Today, 21 February, Thursday

    Time Temperature Precipitation Wind Pressure Humidity
    00:00 +14°C° 0.1 mm 1 mps 542 mmHg 90%
    01:00 +14°C° 0.1 mm 1 mps 542 mmHg 91%
    02:00 +14°C° 0.1 mm 2 mps 542 mmHg 90%
    03:00 +14°C° 0.1 mm 2 mps 541 mmHg 89%
    04:00 +14°C° 0.1 mm 2 mps 541 mmHg 88%
    05:00 +14°C° 0.1 mm 2 mps 541 mmHg 88%
    06:00 +14°C° 0.1 mm 2 mps 541 mmHg 87%
    07:00 +14°C° 0.1 mm 2 mps 542 mmHg 87%
    08:00 +14°C° 0.1 mm 3 mps 542 mmHg 81%
    09:00 +15°C° 0.1 mm 4 mps 543 mmHg 76%
    10:00 +17°C° 0.1 mm 4 mps 544 mmHg 70%
    11:00 +18°C° 0.1 mm 4 mps 544 mmHg 66%
    12:00 +19°C° 0.1 mm 4 mps 545 mmHg 61%
    13:00 +20°C° 0.1 mm 4 mps 545 mmHg 57%
    14:00 +19°C° 0.1 mm 4 mps 544 mmHg 59%
    15:00 +19°C° 0.1 mm 3 mps 543 mmHg 61%
    16:00 +18°C° 0.1 mm 3 mps 542 mmHg 64%
    17:00 +17°C° 0.1 mm 3 mps 542 mmHg 69%
    18:00 +16°C° 0.1 mm 2 mps 542 mmHg 74%
    19:00 +15°C° 0.1 mm 2 mps 542 mmHg 79%
    20:00 +15°C° 0.1 mm 2 mps 542 mmHg 81%
    21:00 +15°C° 0.1 mm 2 mps 542 mmHg 82%
    22:00 +14°C° 0.1 mm 1 mps 543 mmHg 84%
    23:00 +14°C° 0.1 mm 2 mps 543 mmHg 85%

    Tomorrow, 22 February, Friday

    Time Temperature Precipitation Wind Pressure Humidity
    00:00 +14°C° 0.1 mm 2 mps 542 mmHg 86%
    01:00 +14°C° 0.1 mm 2 mps 542 mmHg 87%
    02:00 +13°C° 0.1 mm 2 mps 542 mmHg 88%
    03:00 +13°C° 0.1 mm 2 mps 541 mmHg 88%
    04:00 +13°C° 0.1 mm 2 mps 541 mmHg 89%
    05:00 +13°C° 0.1 mm 2 mps 541 mmHg 89%
    06:00 +13°C° 0.1 mm 2 mps 541 mmHg 89%
    07:00 +13°C° 0.1 mm 2 mps 542 mmHg 88%
    08:00 +13°C° 0.1 mm 3 mps 543 mmHg 84%
    09:00 +14°C° 0.1 mm 3 mps 543 mmHg 79%
    10:00 +15°C° 0.1 mm 4 mps 544 mmHg 74%
    11:00 +17°C° 0.1 mm 4 mps 544 mmHg 71%
    12:00 +18°C° 0.1 mm 3 mps 544 mmHg 67%
    13:00 +18°C° 0.1 mm 3 mps 544 mmHg 63%
    14:00 +19°C° 0.1 mm 3 mps 544 mmHg 62%
    15:00 +19°C° 0.1 mm 3 mps 543 mmHg 60%
    16:00 +19°C° 0.1 mm 2 mps 543 mmHg 59%
    17:00 +18°C° 0.1 mm 2 mps 543 mmHg 66%
    18:00 +16°C° 0.1 mm 2 mps 542 mmHg 73%
    19:00 +15°C° 0.1 mm 1 mps 542 mmHg 80%
    20:00 +15°C° 0.1 mm 1 mps 542 mmHg 83%
    21:00 +14°C° 0.1 mm 1 mps 543 mmHg 85%
    22:00 +14°C° 0.1 mm 1 mps 543 mmHg 88%
    23:00 +14°C° 0.1 mm 1 mps 543 mmHg 88%

    Day after tomorrow, 23 February, Saturday

    Time Temperature Precipitation Wind Pressure Humidity
    00:00 +14°C° 0.1 mm 1 mps 543 mmHg 89%
    01:00 +13°C° 0.1 mm 1 mps 542 mmHg 89%
    02:00 +13°C° 0 mm 1 mps 542 mmHg 89%
    03:00 +13°C° 0 mm 1 mps 541 mmHg 88%
    04:00 +13°C° 0 mm 1 mps 541 mmHg 87%
    05:00 +13°C° 0 mm 1 mps 541 mmHg 87%
    06:00 +13°C° 0 mm 1 mps 541 mmHg 86%
    07:00 +13°C° 0 mm 1 mps 542 mmHg 85%
    08:00 +15°C° 0 mm 1 mps 543 mmHg 77%
    09:00 +16°C° 0 mm 2 mps 544 mmHg 69%
    10:00 +18°C° 0 mm 2 mps 546 mmHg 61%
    11:00 +19°C° 0.1 mm 2 mps 545 mmHg 59%
    12:00 +19°C° 0.1 mm 2 mps 545 mmHg 58%
    13:00 +20°C° 0.1 mm 2 mps 545 mmHg 56%
    14:00 +19°C° 0.3 mm 2 mps 544 mmHg 61%
    15:00 +20°C° 0.3 mm 1 mps 543 mmHg 65%
    16:00 +19°C° 0.3 mm 1 mps 542 mmHg 70%
    17:00 +18°C° 0.6 mm 1 mps 542 mmHg 76%
    18:00 +16°C° 0.6 mm 1 mps 542 mmHg 82%
    19:00 +15°C° 0.6 mm 1 mps 541 mmHg 88%
    20:00 +14°C° 1.4 mm 0 mps 542 mmHg 88%
    21:00 +13°C° 1.4 mm 0 mps 542 mmHg 88%
    22:00 +13°C° 1.4 mm 0 mps 543 mmHg 88%
    23:00 +13°C° 2.9 mm 0 mps 542 mmHg 89%

    24 February, Sunday

    Time Temperature Precipitation Wind Pressure Humidity
    00:00 +12°C° 2.9 mm 0 mps 542 mmHg 89%
    01:00 +12°C° 2.9 mm 1 mps 541 mmHg 90%
    02:00 +12°C° 3 mm 1 mps 541 mmHg 89%
    03:00 +12°C° 3 mm 1 mps 540 mmHg 88%
    04:00 +11°C° 3 mm 1 mps 540 mmHg 87%
    05:00 +11°C° 2 mm 1 mps 540 mmHg 86%
    06:00 +11°C° 2 mm 1 mps 540 mmHg 86%
    07:00 +11°C° 2 mm 1 mps 541 mmHg 85%
    08:00 +12°C° 2 mm 1 mps 541 mmHg 83%
    09:00 +12°C° 2 mm 1 mps 542 mmHg 82%
    10:00 +12°C° 2 mm 1 mps 542 mmHg 81%
    11:00 +13°C° 2 mm 1 mps 542 mmHg 80%
    12:00 +13°C° 2 mm 1 mps 542 mmHg 79%
    13:00 +13°C° 2 mm 1 mps 541 mmHg 78%
    14:00 +13°C° 1.3 mm 1 mps 541 mmHg 78%
    15:00 +13°C° 1.3 mm 1 mps 540 mmHg 78%
    16:00 +13°C° 1.3 mm 1 mps 540 mmHg 78%
    17:00 +13°C° 0.9 mm 1 mps 540 mmHg 80%
    18:00 +12°C° 0.9 mm 1 mps 540 mmHg 82%
    19:00 +12°C° 0.9 mm 1 mps 540 mmHg 83%
    20:00 +11°C° 1 mm 0 mps 540 mmHg 83%
    21:00 +11°C° 1 mm 0 mps 540 mmHg 83%
    22:00 +10°C° 1 mm 0 mps 541 mmHg 83%
    23:00 +10°C° 1.6 mm 0 mps 540 mmHg 84%

    25 February, Monday

    Time Temperature Precipitation Wind Pressure Humidity
    00:00 +10°C° 1.6 mm 0 mps 540 mmHg 84%
    01:00 +10°C° 1.6 mm 0 mps 540 mmHg 84%
    02:00 +10°C° 2 mm 0 mps 539 mmHg 85%
    03:00 +10°C° 2 mm 0 mps 539 mmHg 86%
    04:00 +10°C° 2 mm 0 mps 539 mmHg 87%
    05:00 +10°C° 2 mm 0 mps 539 mmHg 88%
    06:00 +10°C° 2 mm 0 mps 539 mmHg 88%
    07:00 +11°C° 2 mm 1 mps 540 mmHg 88%
    08:00 +11°C° 1.8 mm 1 mps 540 mmHg 87%
    09:00 +12°C° 1.8 mm 1 mps 541 mmHg 85%
    10:00 +12°C° 1.8 mm 1 mps 542 mmHg 84%
    11:00 +12°C° 1.8 mm 1 mps 541 mmHg 83%
    12:00 +13°C° 1.8 mm 1 mps 541 mmHg 82%
    13:00 +13°C° 1.8 mm 1 mps 541 mmHg 81%
    14:00 +13°C° 1.1 mm 1 mps 540 mmHg 81%
    15:00 +13°C° 1.1 mm 1 mps 540 mmHg 81%
    16:00 +13°C° 1.1 mm 1 mps 539 mmHg 81%
    17:00 +13°C° 0.3 mm 1 mps 539 mmHg 83%
    18:00 +12°C° 0.3 mm 1 mps 539 mmHg 85%
    19:00 +12°C° 0.3 mm 1 mps 540 mmHg 87%
    20:00 +12°C° 0.3 mm 1 mps 540 mmHg 88%
    21:00 +12°C° 0.3 mm 1 mps 540 mmHg 89%
    22:00 +12°C° 0.3 mm 1 mps 541 mmHg 90%
    23:00 +12°C° 0.5 mm 1 mps 541 mmHg 91%

    26 February, Tuesday

    Time Temperature Precipitation Wind Pressure Humidity
    00:00 +12°C° 0.5 mm 1 mps 540 mmHg 91%
    01:00 +12°C° 0.5 mm 1 mps 540 mmHg 92%
    02:00 +12°C° 0.6 mm 1 mps 540 mmHg 91%
    03:00 +12°C° 0.6 mm 1 mps 540 mmHg 91%
    04:00 +11°C° 0.6 mm 0 mps 540 mmHg 90%
    05:00 +12°C° 0.8 mm 1 mps 540 mmHg 90%
    06:00 +11°C° 0.8 mm 1 mps 540 mmHg 89%
    07:00 +11°C° 0.8 mm 1 mps 540 mmHg 89%
    08:00 +12°C° 0.4 mm 1 mps 541 mmHg 85%
    09:00 +13°C° 0.4 mm 1 mps 542 mmHg 81%
    10:00 +15°C° 0.4 mm 1 mps 543 mmHg 77%
    11:00 +16°C° 0.2 mm 1 mps 543 mmHg 73%
    12:00 +18°C° 0.2 mm 1 mps 543 mmHg 69%
    13:00 +20°C° 0.2 mm 1 mps 544 mmHg 65%
    14:00 +19°C° 0.3 mm 1 mps 543 mmHg 68%
    15:00 +18°C° 0.3 mm 1 mps 542 mmHg 71%
    16:00 +18°C° 0.3 mm 1 mps 541 mmHg 74%
    17:00 +16°C° 0.2 mm 1 mps 541 mmHg 78%
    18:00 +15°C° 0.2 mm 1 mps 541 mmHg 82%
    19:00 +14°C° 0.2 mm 1 mps 541 mmHg 86%
    20:00 +13°C° 0 mm 1 mps 541 mmHg 87%
    21:00 +12°C° 0 mm 0 mps 541 mmHg 88%
    22:00 +11°C° 0 mm 0 mps 541 mmHg 88%
    23:00 +11°C° 0 mm 0 mps 541 mmHg 88%
    Show more